Powrót do katalogu

STARLINK-34331

AktywnyŁącznośćVLEO
NORAD 64204·PAYLOAD·🇺🇸 United States

Wystrzelony May 31, 2025 z Vandenberg Space Force Base

Loading…

Następne Przeloty (najbliższe 24 godziny)

TLE

ŚwieżeSource: CelesTrak SupGP

Epoka: Sep 14, 2026, 21:39 UTC

1 64204C 25117B   26257.90256944  .00035704  00000+0  10548-2 0  2578
2 64204  53.1579 237.6363 0001436  94.6943  86.9309 15.34374323    18

Śledź STARLINK-34331 w czasie rzeczywistym z AllMySat

Download on the App Store